| time (UTC) | temp C | wind direction | speed KPH | gust KPH | rain 1hr cm | rain 24hr cm | rain mn cm | humidity % | barometer mb |
| 20260507204822 | 12 | 195 | 0.0 | 0.0 | 0.00 | 0.00 | 0.00 | 81 | 1013.4 |
| 20260507204542 | 12 | 195 | 0.0 | 0.0 | 0.00 | 0.00 | 0.00 | 81 | 1013.4 |
| 20260507204333 | 12 | 195 | 0.0 | 0.0 | 0.00 | 0.00 | 0.00 | 81 | 1013.5 |
| 20260507203814 | 12 | 195 | 0.0 | 0.0 | 0.00 | 0.00 | 0.00 | 80 | 1013.4 |
| 20260507203315 | 12 | 195 | 0.0 | 0.0 | 0.00 | 0.00 | 0.00 | 80 | 1013.5 |
| 20260507203032 | 12 | 195 | 0.0 | 0.0 | 0.00 | 0.00 | 0.00 | 79 | 1013.4 |
| 20260507202835 | 12 | 195 | 0.0 | 0.0 | 0.00 | 0.00 | 0.00 | 79 | 1013.4 |
| 20260507202316 | 13 | 195 | 0.0 | 0.0 | 0.00 | 0.00 | 0.00 | 78 | 1013.5 |
| 20260507201822 | 13 | 195 | 0.0 | 0.0 | 0.00 | 0.00 | 0.00 | 77 | 1013.5 |
| 20260507201605 | 12 | 195 | 0.0 | 0.0 | 0.00 | 0.00 | 0.00 | 77 | 1013.4 |
| 20260507201324 | 13 | 195 | 0.0 | 0.0 | 0.00 | 0.00 | 0.00 | 77 | 1013.5 |
| 20260507200833 | 13 | 195 | 0.0 | 0.0 | 0.00 | 0.00 | 0.00 | 77 | 1013.5 |
| 20260507200355 | 13 | 195 | 0.0 | 0.0 | 0.00 | 0.00 | 0.00 | 76 | 1013.5 |
| 20260507200013 | 13 | 195 | 0.0 | 0.0 | 0.00 | 0.00 | 0.00 | 76 | 1013.3 |
| 20260507195826 | 13 | 195 | 0.0 | 0.0 | 0.00 | 0.00 | 0.00 | 76 | 1013.3 |
| 20260507195442 | 13 | 195 | 0.0 | 0.0 | 0.00 | 0.00 | 0.00 | 76 | 1013.3 |
| 20260507194816 | 13 | 195 | 0.0 | 0.0 | 0.00 | 0.00 | 0.00 | 77 | 1013.4 |
| 20260507194557 | 13 | 195 | 0.0 | 0.0 | 0.00 | 0.00 | 0.00 | 77 | 1013.3 |
| 20260507194341 | 13 | 195 | 0.0 | 0.0 | 0.00 | 0.00 | 0.00 | 77 | 1013.4 |
| 20260507193818 | 13 | 195 | 0.0 | 0.0 | 0.00 | 0.00 | 0.00 | 77 | 1013.4 |
| 20260507193325 | 14 | 195 | 0.0 | 0.0 | 0.00 | 0.00 | 0.00 | 76 | 1013.4 |
| 20260507193102 | 13 | 195 | 0.0 | 0.0 | 0.00 | 0.00 | 0.00 | 76 | 1013.4 |
| 20260507192844 | 14 | 195 | 0.0 | 0.0 | 0.00 | 0.00 | 0.00 | 76 | 1013.4 |
| 20260507192315 | 14 | 195 | 0.0 | 0.0 | 0.00 | 0.00 | 0.00 | 75 | 1013.5 |
| 20260507191857 | 14 | 195 | 0.0 | 0.0 | 0.00 | 0.00 | 0.00 | 76 | 1013.4 |
| 20260507191508 | 14 | 195 | 0.0 | 0.0 | 0.00 | 0.00 | 0.00 | 75 | 1013.3 |
| 20260507191315 | 15 | 195 | 0.0 | 0.0 | 0.00 | 0.00 | 0.00 | 75 | 1013.3 |
| 20260507190816 | 15 | 195 | 0.0 | 0.0 | 0.00 | 0.00 | 0.00 | 75 | 1013.3 |
| 20260507190324 | 15 | 195 | 0.0 | 0.0 | 0.00 | 0.00 | 0.00 | 75 | 1013.3 |
| 20260507185845 | 15 | 195 | 0.0 | 0.0 | 0.00 | 0.00 | 0.00 | 75 | 1013.4 |
| 20260507185333 | 15 | 195 | 0.0 | 0.0 | 0.00 | 0.00 | 0.00 | 75 | 1013.4 |
| 20260507184840 | 15 | 195 | 0.0 | 0.0 | 0.00 | 0.00 | 0.00 | 76 | 1013.2 |
| 20260507184556 | 15 | 195 | 0.0 | 0.0 | 0.00 | 0.00 | 0.00 | 76 | 1013.4 |
| 20260507184353 | 15 | 195 | 0.0 | 0.0 | 0.00 | 0.00 | 0.00 | 76 | 1013.3 |
| 20260507183835 | 16 | 195 | 0.0 | 0.0 | 0.00 | 0.00 | 0.00 | 75 | 1013.2 |
| 20260507183315 | 16 | 195 | 0.0 | 0.0 | 0.00 | 0.00 | 0.00 | 74 | 1013.2 |
| 20260507183008 | 16 | 195 | 0.0 | 0.0 | 0.00 | 0.00 | 0.00 | 73 | 1013.2 |
| 20260507182823 | 16 | 195 | 0.0 | 0.0 | 0.00 | 0.00 | 0.00 | 72 | 1013.2 |
| 20260507182325 | 16 | 195 | 0.0 | 0.0 | 0.00 | 0.00 | 0.00 | 71 | 1013.1 |
| 20260507181816 | 16 | 195 | 0.0 | 0.0 | 0.00 | 0.00 | 0.00 | 69 | 1013.1 |
| 20260507181607 | 16 | 195 | 0.0 | 0.0 | 0.00 | 0.00 | 0.00 | 69 | 1013.1 |
| 20260507181316 | 17 | 195 | 0.0 | 0.0 | 0.00 | 0.00 | 0.00 | 68 | 1013.0 |
| 20260507180813 | 17 | 195 | 0.0 | 0.0 | 0.00 | 0.00 | 0.00 | 66 | 1013.2 |
| 20260507180348 | 17 | 195 | 0.0 | 0.0 | 0.00 | 0.00 | 0.00 | 64 | 1013.2 |
| 20260507180016 | 17 | 195 | 0.0 | 0.0 | 0.00 | 0.00 | 0.00 | 64 | 1013.1 |
| 20260507175830 | 18 | 195 | 0.0 | 0.0 | 0.00 | 0.00 | 0.00 | 64 | 1013.1 |
| 20260507175403 | 18 | 195 | 0.0 | 0.0 | 0.00 | 0.00 | 0.00 | 63 | 1013.1 |
| 20260507174828 | 18 | 195 | 0.0 | 0.0 | 0.00 | 0.00 | 0.00 | 61 | 1013.1 |
| 20260507174555 | 18 | 195 | 0.0 | 0.0 | 0.00 | 0.00 | 0.00 | 61 | 1013.1 |
| 20260507174330 | 18 | 195 | 0.0 | 0.0 | 0.00 | 0.00 | 0.00 | 61 | 1013.1 |
| 20260507173819 | 18 | 195 | 0.0 | 4.8 | 0.00 | 0.00 | 0.00 | 61 | 1013.0 |
| 20260507173321 | 18 | 195 | 0.0 | 4.8 | 0.00 | 0.00 | 0.00 | 61 | 1013.1 |
| 20260507173039 | 18 | 195 | 0.0 | 9.7 | 0.00 | 0.00 | 0.00 | 60 | 1013.1 |
| 20260507172851 | 18 | 195 | 0.0 | 9.7 | 0.00 | 0.00 | 0.00 | 60 | 1013.0 |
| 20260507172356 | 19 | 195 | 0.0 | 8.0 | 0.00 | 0.00 | 0.00 | 58 | 1013.1 |
| 20260507171834 | 19 | 195 | 0.0 | 6.4 | 0.00 | 0.00 | 0.00 | 57 | 1013.0 |
| 20260507171523 | 19 | 195 | 0.0 | 6.4 | 0.00 | 0.00 | 0.00 | 57 | 1012.9 |
| 20260507171321 | 20 | 195 | 3.2 | 6.4 | 0.00 | 0.00 | 0.00 | 56 | 1012.9 |
| 20260507170823 | 20 | 195 | 1.6 | 4.8 | 0.00 | 0.00 | 0.00 | 56 | 1013.0 |
| 20260507170333 | 20 | 195 | 0.0 | 0.0 | 0.00 | 0.00 | 0.00 | 54 | 1012.8 |
| 20260507170016 | 20 | 195 | 0.0 | 0.0 | 0.00 | 0.00 | 0.00 | 53 | 1012.8 |
| 20260507165920 | 20 | 195 | 0.0 | 0.0 | 0.00 | 0.00 | 0.00 | 53 | 1013.0 |
| 20260507165319 | 20 | 195 | 0.0 | 6.4 | 0.00 | 0.00 | 0.00 | 50 | 1012.9 |
| 20260507164849 | 20 | 195 | 1.6 | 6.4 | 0.00 | 0.00 | 0.00 | 50 | 1013.1 |
| 20260507164506 | 20 | 195 | 1.6 | 6.4 | 0.00 | 0.00 | 0.00 | 48 | 1013.0 |
| 20260507164330 | 20 | 195 | 1.6 | 6.4 | 0.00 | 0.00 | 0.00 | 48 | 1013.1 |
| 20260507163839 | 20 | 195 | 0.0 | 0.0 | 0.00 | 0.00 | 0.00 | 47 | 1013.0 |
| 20260507163320 | 20 | 195 | 0.0 | 8.0 | 0.00 | 0.00 | 0.00 | 48 | 1013.1 |
| 20260507163100 | 20 | 195 | 1.6 | 8.0 | 0.00 | 0.00 | 0.00 | 48 | 1013.1 |
| 20260507162822 | 21 | 195 | 0.0 | 8.0 | 0.00 | 0.00 | 0.00 | 48 | 1013.1 |
| 20260507162331 | 20 | 195 | 0.0 | 6.4 | 0.00 | 0.00 | 0.00 | 50 | 1013.1 |
| 20260507161851 | 20 | 195 | 1.6 | 9.7 | 0.00 | 0.00 | 0.00 | 49 | 1013.1 |
| 20260507161532 | 20 | 195 | 1.6 | 11.3 | 0.00 | 0.00 | 0.00 | 48 | 1013.1 |
| 20260507161357 | 20 | 195 | 4.8 | 12.9 | 0.00 | 0.00 | 0.00 | 48 | 1013.1 |
| 20260507160839 | 21 | 195 | 3.2 | 12.9 | 0.00 | 0.00 | 0.00 | 49 | 1013.2 |
| 20260507160322 | 21 | 195 | 0.0 | 8.0 | 0.00 | 0.00 | 0.00 | 48 | 1013.1 |
| 20260507160058 | 21 | 195 | 1.6 | 9.7 | 0.00 | 0.00 | 0.00 | 48 | 1013.1 |
| 20260507155822 | 21 | 195 | 0.0 | 9.7 | 0.00 | 0.00 | 0.00 | 48 | 1013.1 |
| 20260507155332 | 21 | 195 | 0.0 | 9.7 | 0.00 | 0.00 | 0.00 | 50 | 1013.0 |
| 20260507154814 | 21 | 195 | 1.6 | 9.7 | 0.00 | 0.00 | 0.00 | 49 | 1012.9 |
| 20260507154547 | 20 | 195 | 3.2 | 9.7 | 0.00 | 0.00 | 0.00 | 49 | 1013.0 |
| 20260507154342 | 21 | 195 | 1.6 | 9.7 | 0.00 | 0.00 | 0.00 | 49 | 1013.0 |
| 20260507153828 | 21 | 195 | 0.0 | 9.7 | 0.00 | 0.00 | 0.00 | 50 | 1012.8 |
| 20260507153357 | 21 | 195 | 1.6 | 11.3 | 0.00 | 0.00 | 0.00 | 50 | 1013.0 |
| 20260507153003 | 21 | 195 | 0.0 | 11.3 | 0.00 | 0.00 | 0.00 | 50 | 1013.0 |
| 20260507152905 | 21 | 195 | 3.2 | 12.9 | 0.00 | 0.00 | 0.00 | 50 | 1013.1 |
| 20260507152320 | 21 | 195 | 4.8 | 12.9 | 0.00 | 0.00 | 0.00 | 50 | 1013.0 |
| 20260507151827 | 21 | 195 | 0.0 | 8.0 | 0.00 | 0.00 | 0.00 | 47 | 1013.0 |
| 20260507151559 | 21 | 195 | 0.0 | 8.0 | 0.00 | 0.00 | 0.00 | 42 | 1013.1 |
| 20260507151313 | 22 | 195 | 3.2 | 8.0 | 0.00 | 0.00 | 0.00 | 40 | 1013.0 |
| 20260507150824 | 21 | 195 | 0.0 | 0.0 | 0.00 | 0.00 | 0.00 | 43 | 1013.1 |
| 20260507150324 | 21 | 195 | 0.0 | 9.7 | 0.00 | 0.00 | 0.00 | 42 | 1013.3 |
| 20260507150052 | 21 | 195 | 0.0 | 9.7 | 0.00 | 0.00 | 0.00 | 42 | 1013.2 |
| 20260507145817 | 21 | 195 | 1.6 | 11.3 | 0.00 | 0.00 | 0.00 | 41 | 1013.2 |
| 20260507145334 | 21 | 195 | 4.8 | 11.3 | 0.00 | 0.00 | 0.00 | 43 | 1013.2 |
| 20260507144835 | 21 | 195 | 0.0 | 0.0 | 0.00 | 0.00 | 0.00 | 42 | 1013.1 |
| 20260507144602 | 21 | 195 | 0.0 | 8.0 | 0.00 | 0.00 | 0.00 | 43 | 1013.1 |
| 20260507144359 | 21 | 195 | 0.0 | 8.0 | 0.00 | 0.00 | 0.00 | 44 | 1013.2 |
| 20260507143947 | 21 | 195 | 3.2 | 9.7 | 0.00 | 0.00 | 0.00 | 42 | 1013.4 |
| 20260507143313 | 21 | 195 | 0.0 | 9.7 | 0.00 | 0.00 | 0.00 | 43 | 1013.3 |
| 20260507143018 | 21 | 195 | 0.0 | 9.7 | 0.00 | 0.00 | 0.00 | 42 | 1013.3 |
| 20260507142821 | 21 | 195 | 0.0 | 9.7 | 0.00 | 0.00 | 0.00 | 41 | 1013.4 |
| 20260507142323 | 22 | 195 | 0.0 | 8.0 | 0.00 | 0.00 | 0.00 | 43 | 1013.4 |
| 20260507141832 | 22 | 195 | 0.0 | 9.7 | 0.00 | 0.00 | 0.00 | 41 | 1013.4 |
| 20260507141511 | 21 | 195 | 0.0 | 9.7 | 0.00 | 0.00 | 0.00 | 44 | 1013.4 |
| 20260507141314 | 21 | 195 | 0.0 | 12.9 | 0.00 | 0.00 | 0.00 | 45 | 1013.5 |
| 20260507140816 | 22 | 195 | 4.8 | 12.9 | 0.00 | 0.00 | 0.00 | 46 | 1013.5 |
| 20260507140345 | 22 | 195 | 3.2 | 12.9 | 0.00 | 0.00 | 0.00 | 45 | 1013.6 |
| 20260507140047 | 21 | 195 | 1.6 | 12.9 | 0.00 | 0.00 | 0.00 | 44 | 1013.6 |
| 20260507135832 | 22 | 195 | 0.0 | 14.5 | 0.00 | 0.00 | 0.00 | 45 | 1013.6 |
| 20260507135327 | 22 | 195 | 1.6 | 14.5 | 0.00 | 0.00 | 0.00 | 47 | 1013.6 |
| 20260507134834 | 22 | 195 | 3.2 | 14.5 | 0.00 | 0.00 | 0.00 | 45 | 1013.7 |
| 20260507134552 | 21 | 195 | 3.2 | 14.5 | 0.00 | 0.00 | 0.00 | 45 | 1013.7 |
| 20260507134313 | 22 | 195 | 1.6 | 11.3 | 0.00 | 0.00 | 0.00 | 46 | 1013.8 |
| 20260507133848 | 22 | 195 | 1.6 | 11.3 | 0.00 | 0.00 | 0.00 | 45 | 1013.7 |
| 20260507133327 | 22 | 195 | 0.0 | 14.5 | 0.00 | 0.00 | 0.00 | 43 | 1013.7 |
| 20260507133023 | 22 | 195 | 0.0 | 14.5 | 0.00 | 0.00 | 0.00 | 45 | 1013.7 |
| 20260507132817 | 22 | 195 | 1.6 | 14.5 | 0.00 | 0.00 | 0.00 | 45 | 1013.8 |
| 20260507132319 | 22 | 194 | 3.2 | 11.3 | 0.00 | 0.00 | 0.00 | 44 | 1013.9 |
| 20260507131847 | 22 | 194 | 0.0 | 8.0 | 0.00 | 0.00 | 0.00 | 43 | 1013.8 |
| 20260507131555 | 22 | 194 | 0.0 | 8.0 | 0.00 | 0.00 | 0.00 | 41 | 1013.7 |
| 20260507131327 | 22 | 194 | 3.2 | 8.0 | 0.00 | 0.00 | 0.00 | 45 | 1013.7 |
| 20260507130836 | 22 | 194 | 4.8 | 6.4 | 0.00 | 0.00 | 0.00 | 42 | 1013.8 |
| 20260507130318 | 22 | 194 | 0.0 | 9.7 | 0.00 | 0.00 | 0.00 | 45 | 1013.8 |
| 20260507130059 | 22 | 194 | 0.0 | 9.7 | 0.00 | 1.45 | 0.00 | 46 | 1013.8 |
| 20260507125819 | 22 | 194 | 1.6 | 9.7 | 0.00 | 7.39 | 0.00 | 44 | 1013.8 |
| 20260507125326 | 22 | 194 | 0.0 | 11.3 | 0.00 | 7.39 | 0.00 | 43 | 1013.8 |
| 20260507124828 | 22 | 194 | 3.2 | 9.7 | 0.00 | 7.39 | 0.00 | 43 | 1013.8 |
| 20260507124536 | 22 | 195 | 0.0 | 8.0 | 0.00 | 1.45 | 0.00 | 44 | 1013.7 |
| 20260507124336 | 22 | 194 | 0.0 | 6.4 | 0.00 | 7.39 | 0.00 | 44 | 1013.9 |
| 20260507123818 | 22 | 194 | 3.2 | 8.0 | 0.00 | 7.39 | 0.00 | 44 | 1013.9 |
| 20260507123319 | 22 | 194 | 3.2 | 8.0 | 0.00 | 7.39 | 0.00 | 42 | 1013.8 |
| 20260507123029 | 22 | 194 | 0.0 | 11.3 | 0.00 | 1.45 | 0.00 | 42 | 1013.7 |
| 20260507122848 | 22 | 194 | 0.0 | 11.3 | 0.00 | 7.39 | 0.00 | 45 | 1013.8 |
| 20260507122353 | 22 | 195 | 4.8 | 11.3 | 0.00 | 7.39 | 0.00 | 44 | 1013.8 |
| 20260507121834 | 22 | 194 | 0.0 | 1.6 | 0.00 | 7.39 | 0.00 | 45 | 1013.7 |
| 20260507121517 | 21 | 194 | 0.0 | 4.8 | 0.00 | 1.45 | 0.00 | 45 | 1013.6 |
| 20260507121323 | 22 | 194 | 0.0 | 9.7 | 0.00 | 7.39 | 0.00 | 46 | 1013.8 |
| 20260507120823 | 21 | 194 | 0.0 | 14.5 | 0.00 | 7.39 | 0.00 | 46 | 1013.8 |
| 20260507120352 | 22 | 194 | 1.6 | 8.0 | 0.00 | 7.39 | 0.00 | 46 | 1013.8 |
| 20260507120035 | 21 | 194 | 1.6 | 8.0 | 0.00 | 1.65 | 0.00 | 47 | 1013.8 |
| 20260507115838 | 22 | 194 | 0.0 | 8.0 | 0.00 | 8.31 | 0.00 | 45 | 1013.8 |
| 20260507115320 | 22 | 194 | 3.2 | 8.0 | 0.00 | 8.31 | 0.00 | 45 | 1013.8 |
| 20260507114842 | 22 | 194 | 3.2 | 6.4 | 0.00 | 8.31 | 0.00 | 44 | 1014.0 |
| 20260507114511 | 22 | 194 | 0.0 | 8.0 | 0.00 | 1.65 | 0.00 | 45 | 1014.0 |
| 20260507114321 | 22 | 194 | 0.0 | 8.0 | 0.00 | 8.31 | 0.00 | 46 | 1014.0 |
| 20260507113817 | 22 | 194 | 1.6 | 8.0 | 0.00 | 8.31 | 0.00 | 43 | 1014.0 |
| 20260507113325 | 22 | 194 | 1.6 | 11.3 | 0.00 | 8.31 | 0.00 | 44 | 1014.1 |
| 20260507113058 | 21 | 194 | 1.6 | 11.3 | 0.00 | 1.65 | 0.00 | 46 | 1014.0 |
| 20260507112827 | 22 | 194 | 3.2 | 11.3 | 0.00 | 8.31 | 0.00 | 47 | 1014.1 |
| 20260507112336 | 21 | 194 | 0.0 | 11.3 | 0.00 | 8.31 | 0.00 | 46 | 1014.1 |
| 20260507111817 | 22 | 194 | 1.6 | 11.3 | 0.00 | 8.31 | 0.00 | 45 | 1014.2 |
| 20260507111531 | 21 | 194 | 0.0 | 9.7 | 0.00 | 1.65 | 0.00 | 47 | 1014.2 |
| 20260507111326 | 22 | 194 | 4.8 | 9.7 | 0.00 | 8.31 | 0.00 | 50 | 1014.3 |
| 20260507110828 | 21 | 194 | 0.0 | 0.0 | 0.00 | 8.31 | 0.00 | 51 | 1014.3 |
| 20260507110330 | 21 | 194 | 0.0 | 6.4 | 0.00 | 8.31 | 0.00 | 52 | 1014.3 |
| 20260507110024 | 21 | 194 | 1.6 | 8.0 | 0.00 | 1.65 | 0.00 | 54 | 1014.3 |
| 20260507105814 | 21 | 194 | 3.2 | 8.0 | 0.00 | 8.31 | 0.00 | 54 | 1014.3 |
| 20260507105316 | 21 | 194 | 1.6 | 8.0 | 0.00 | 8.31 | 0.00 | 56 | 1014.4 |
| 20260507104823 | 21 | 194 | 0.0 | 6.4 | 0.00 | 8.31 | 0.00 | 59 | 1014.4 |
| 20260507104544 | 20 | 194 | 0.0 | 8.0 | 0.00 | 1.65 | 0.00 | 58 | 1014.4 |
| 20260507104318 | 20 | 194 | 0.0 | 8.0 | 0.00 | 8.31 | 0.00 | 56 | 1014.3 |
| 20260507103827 | 21 | 194 | 1.6 | 8.0 | 0.00 | 8.31 | 0.00 | 57 | 1014.4 |
| 20260507103322 | 20 | 194 | 0.0 | 0.0 | 0.00 | 8.31 | 0.00 | 56 | 1014.5 |
| 20260507103030 | 20 | 194 | 0.0 | 0.0 | 0.00 | 1.65 | 0.00 | 57 | 1014.4 |
| 20260507102851 | 20 | 194 | 0.0 | 0.0 | 0.00 | 8.31 | 0.00 | 59 | 1014.5 |
| 20260507102332 | 20 | 194 | 0.0 | 0.0 | 0.00 | 8.31 | 0.00 | 60 | 1014.7 |
| 20260507101819 | 20 | 194 | 0.0 | 0.0 | 0.00 | 8.31 | 0.00 | 62 | 1014.7 |
| 20260507101603 | 20 | 194 | 0.0 | 0.0 | 0.00 | 1.65 | 0.00 | 61 | 1014.7 |
| 20260507101319 | 20 | 194 | 0.0 | 0.0 | 0.00 | 8.31 | 0.00 | 58 | 1014.7 |
| 20260507100822 | 20 | 194 | 0.0 | 0.0 | 0.00 | 8.31 | 0.00 | 59 | 1014.7 |
| 20260507100329 | 21 | 194 | 0.0 | 0.0 | 0.00 | 8.31 | 0.00 | 58 | 1014.6 |
| 20260507095831 | 20 | 194 | 0.0 | 0.0 | 0.00 | 8.31 | 0.00 | 59 | 1014.6 |
| 20260507095319 | 20 | 194 | 0.0 | 0.0 | 0.00 | 8.31 | 0.00 | 60 | 1014.6 |
| 20260507094819 | 20 | 194 | 0.0 | 0.0 | 0.00 | 8.31 | 0.00 | 60 | 1014.6 |
| 20260507094521 | 20 | 194 | 0.0 | 0.0 | 0.00 | 1.65 | 0.00 | 60 | 1014.5 |
| 20260507094328 | 20 | 194 | 0.0 | 0.0 | 0.00 | 8.31 | 0.00 | 59 | 1014.6 |
| 20260507093828 | 20 | 194 | 0.0 | 0.0 | 0.00 | 8.31 | 0.00 | 59 | 1014.5 |
| 20260507093338 | 20 | 194 | 0.0 | 0.0 | 0.00 | 8.31 | 0.00 | 60 | 1014.5 |
| 20260507093012 | 20 | 194 | 0.0 | 0.0 | 0.00 | 1.65 | 0.00 | 60 | 1014.5 |
| 20260507092819 | 20 | 194 | 0.0 | 0.0 | 0.00 | 8.31 | 0.00 | 60 | 1014.4 |
| 20260507092321 | 20 | 194 | 0.0 | 0.0 | 0.00 | 8.31 | 0.00 | 60 | 1014.5 |
| 20260507091829 | 20 | 194 | 0.0 | 0.0 | 0.00 | 8.31 | 0.00 | 60 | 1014.6 |
| 20260507091502 | 19 | 194 | 0.0 | 0.0 | 0.00 | 1.65 | 0.00 | 61 | 1014.5 |
| 20260507091330 | 19 | 194 | 0.0 | 0.0 | 0.00 | 8.31 | 0.00 | 62 | 1014.5 |
| 20260507090837 | 19 | 194 | 0.0 | 0.0 | 0.00 | 8.31 | 0.00 | 63 | 1014.6 |
| 20260507090315 | 19 | 194 | 0.0 | 0.0 | 0.00 | 8.31 | 0.00 | 61 | 1014.5 |
| 20260507090027 | 20 | 194 | 0.0 | 0.0 | 0.00 | 1.68 | 0.00 | 61 | 1014.6 |
| 20260507085822 | 20 | 194 | 0.0 | 0.0 | 0.00 | 8.41 | 0.00 | 62 | 1014.6 |
| 20260507085323 | 20 | 194 | 0.0 | 0.0 | 0.00 | 8.41 | 0.00 | 62 | 1014.5 |
| 20260507084849 | 20 | 194 | 0.0 | 0.0 | 0.00 | 8.41 | 0.00 | 64 | 1014.6 |
| 20260507084600 | 19 | 194 | 0.0 | 0.0 | 0.00 | 1.68 | 0.00 | 65 | 1014.6 |
| 20260507084330 | 18 | 194 | 0.0 | 0.0 | 0.00 | 8.41 | 0.00 | 68 | 1014.6 |
| 20260507083838 | 18 | 194 | 0.0 | 0.0 | 0.00 | 8.41 | 0.00 | 67 | 1014.7 |
| 20260507083319 | 18 | 194 | 0.0 | 0.0 | 0.00 | 8.41 | 0.00 | 65 | 1014.6 |
| 20260507083106 | 18 | 194 | 0.0 | 0.0 | 0.00 | 1.68 | 0.00 | 64 | 1014.6 |
| 20260507082821 | 19 | 194 | 0.0 | 0.0 | 0.00 | 8.41 | 0.00 | 65 | 1014.7 |
| 20260507082330 | 18 | 195 | 0.0 | 0.0 | 0.00 | 8.41 | 0.00 | 68 | 1014.6 |
| 20260507081837 | 18 | 195 | 0.0 | 0.0 | 0.00 | 8.41 | 0.00 | 68 | 1014.7 |
| 20260507081520 | 18 | 195 | 0.0 | 0.0 | 0.00 | 1.68 | 0.00 | 68 | 1014.7 |
| 20260507081316 | 18 | 195 | 0.0 | 0.0 | 0.00 | 8.41 | 0.00 | 68 | 1014.7 |
| 20260507080818 | 18 | 194 | 0.0 | 0.0 | 0.00 | 8.41 | 0.00 | 69 | 1014.7 |
| 20260507080346 | 18 | 194 | 0.0 | 3.2 | 0.00 | 8.41 | 0.00 | 71 | 1014.7 |
| 20260507080056 | 17 | 195 | 0.0 | 6.4 | 0.00 | 1.68 | 0.00 | 71 | 1014.7 |
| 20260507075831 | 17 | 194 | 0.0 | 6.4 | 0.00 | 8.41 | 0.00 | 72 | 1014.6 |
| 20260507075335 | 17 | 195 | 0.0 | 4.8 | 0.00 | 8.41 | 0.00 | 71 | 1014.5 |
| 20260507074842 | 17 | 195 | 0.0 | 1.6 | 0.00 | 8.41 | 0.00 | 73 | 1014.6 |
| 20260507074608 | 17 | 193 | 0.0 | 0.0 | 0.00 | 1.68 | 0.00 | 73 | 1014.6 |
| 20260507074317 | 17 | 193 | 0.0 | 3.2 | 0.00 | 8.41 | 0.00 | 71 | 1014.6 |
| 20260507073826 | 17 | 193 | 0.0 | 3.2 | 0.00 | 8.41 | 0.00 | 74 | 1014.5 |
| 20260507073347 | 17 | 84 | 1.6 | 3.2 | 0.00 | 8.41 | 0.00 | 75 | 1014.6 |
| 20260507073030 | 16 | 193 | 0.0 | 0.0 | 0.00 | 1.68 | 0.00 | 76 | 1014.4 |
| 20260507072835 | 17 | 193 | 0.0 | 0.0 | 0.00 | 8.41 | 0.00 | 75 | 1014.5 |
| 20260507072317 | 17 | 193 | 0.0 | 0.0 | 0.00 | 8.41 | 0.00 | 74 | 1014.5 |
| 20260507071847 | 17 | 193 | 0.0 | 0.0 | 0.00 | 8.41 | 0.00 | 75 | 1014.4 |
| 20260507071600 | 16 | 193 | 0.0 | 0.0 | 0.00 | 1.68 | 0.00 | 76 | 1014.4 |
| 20260507071326 | 16 | 75 | 0.0 | 0.0 | 0.00 | 8.41 | 0.00 | 76 | 1014.4 |
| 20260507070834 | 16 | 66 | 0.0 | 0.0 | 0.00 | 8.41 | 0.00 | 79 | 1014.4 |
| 20260507070331 | 16 | 66 | 0.0 | 0.0 | 0.00 | 8.41 | 0.00 | 77 | 1014.2 |
| 20260507070035 | 16 | 84 | 0.0 | 0.0 | 0.00 | 1.68 | 0.00 | 79 | 1014.3 |
| 20260507065838 | 16 | 77 | 0.0 | 0.0 | 0.00 | 8.41 | 0.00 | 80 | 1014.4 |
| 20260507065320 | 16 | 57 | 0.0 | 0.0 | 0.00 | 8.41 | 0.00 | 80 | 1014.3 |
| 20260507064820 | 15 | 75 | 0.0 | 0.0 | 0.00 | 8.41 | 0.00 | 81 | 1014.2 |
| 20260507064527 | 15 | 57 | 0.0 | 0.0 | 0.00 | 1.68 | 0.00 | 82 | 1014.2 |
| 20260507064327 | 15 | 193 | 0.0 | 0.0 | 0.00 | 8.41 | 0.00 | 82 | 1014.2 |
| 20260507063829 | 15 | 105 | 0.0 | 9.7 | 0.00 | 8.41 | 0.00 | 82 | 1014.2 |
| 20260507063338 | 15 | 69 | 4.8 | 9.7 | 0.00 | 8.41 | 0.00 | 83 | 1014.1 |
| 20260507063008 | 14 | 91 | 3.2 | 9.7 | 0.00 | 1.68 | 0.00 | 83 | 1013.9 |
| 20260507062839 | 14 | 71 | 3.2 | 9.7 | 0.00 | 8.41 | 0.00 | 83 | 1014.0 |
| 20260507062343 | 14 | 68 | 3.2 | 8.0 | 0.00 | 8.41 | 0.00 | 84 | 1013.9 |
| 20260507061846 | 14 | 193 | 0.0 | 0.0 | 0.00 | 8.41 | 0.00 | 85 | 1013.9 |
| 20260507061559 | 13 | 193 | 0.0 | 0.0 | 0.00 | 1.68 | 0.00 | 85 | 1013.9 |
| 20260507061327 | 14 | 193 | 0.0 | 0.0 | 0.00 | 8.41 | 0.00 | 85 | 1013.9 |
| 20260507060815 | 14 | 193 | 0.0 | 0.0 | 0.00 | 8.41 | 0.00 | 86 | 1013.9 |
| 20260507060316 | 13 | 193 | 0.0 | 0.0 | 0.00 | 8.41 | 0.00 | 86 | 1013.9 |
| 20260507060027 | 13 | 193 | 0.0 | 0.0 | 0.00 | 2.18 | 0.00 | 87 | 1013.8 |
| 20260507055823 | 13 | 193 | 0.0 | 0.0 | 0.00 | 10.90 | 0.00 | 87 | 1013.9 |
| 20260507055322 | 13 | 193 | 0.0 | 0.0 | 0.00 | 10.90 | 0.00 | 88 | 1013.8 |
| 20260507054831 | 13 | 193 | 0.0 | 6.4 | 0.00 | 10.90 | 0.00 | 88 | 1013.8 |
| 20260507054559 | 12 | 193 | 0.0 | 6.4 | 0.00 | 2.18 | 0.00 | 88 | 1013.7 |
| 20260507054332 | 13 | 193 | 0.0 | 6.4 | 0.00 | 10.90 | 0.00 | 88 | 1013.7 |
| 20260507053814 | 12 | 193 | 0.0 | 0.0 | 0.00 | 10.90 | 0.00 | 88 | 1013.7 |
| 20260507053343 | 12 | 193 | 0.0 | 0.0 | 0.00 | 10.90 | 0.00 | 88 | 1013.6 |
| 20260507053025 | 12 | 193 | 0.0 | 0.0 | 0.00 | 2.18 | 0.00 | 88 | 1013.5 |
| 20260507052826 | 12 | 70 | 0.0 | 0.0 | 0.00 | 10.90 | 0.00 | 87 | 1013.5 |
| 20260507052327 | 12 | 75 | 0.0 | 0.0 | 0.00 | 10.90 | 0.00 | 87 | 1013.5 |
| 20260507051837 | 11 | 75 | 0.0 | 0.0 | 0.00 | 10.90 | 0.00 | 87 | 1013.4 |
| 20260507051515 | 11 | 75 | 0.0 | 0.0 | 0.00 | 2.18 | 0.00 | 87 | 1013.5 |
| 20260507051336 | 11 | 75 | 0.0 | 0.0 | 0.00 | 10.90 | 0.00 | 87 | 1013.5 |
| 20260507050816 | 10 | 75 | 0.0 | 0.0 | 0.00 | 10.90 | 0.00 | 88 | 1013.5 |
| 20260507050325 | 10 | 75 | 0.0 | 0.0 | 0.00 | 10.90 | 0.00 | 88 | 1013.5 |
| 20260507050049 | 10 | 75 | 0.0 | 0.0 | 0.00 | 2.21 | 0.00 | 88 | 1013.4 |
| 20260507045853 | 10 | 75 | 0.0 | 0.0 | 0.00 | 11.00 | 0.00 | 88 | 1013.4 |
| 20260507045314 | 10 | 75 | 0.0 | 0.0 | 0.00 | 11.00 | 0.00 | 87 | 1013.4 |
| 20260507044816 | 10 | 75 | 0.0 | 0.0 | 0.00 | 11.00 | 0.00 | 87 | 1013.3 |
| 20260507044530 | 10 | 75 | 0.0 | 0.0 | 0.00 | 2.21 | 0.00 | 87 | 1013.3 |
| 20260507044325 | 10 | 75 | 0.0 | 0.0 | 0.00 | 11.00 | 0.00 | 87 | 1013.3 |
| 20260507043855 | 10 | 75 | 0.0 | 0.0 | 0.00 | 11.00 | 0.00 | 88 | 1013.3 |
| 20260507043356 | 10 | 75 | 0.0 | 0.0 | 0.00 | 11.00 | 0.00 | 88 | 1013.3 |
| 20260507043013 | 9 | 75 | 0.0 | 0.0 | 0.00 | 2.21 | 0.00 | 88 | 1013.3 |
| 20260507042822 | 10 | 75 | 0.0 | 0.0 | 0.00 | 11.00 | 0.00 | 88 | 1013.2 |
| 20260507042324 | 10 | 75 | 0.0 | 0.0 | 0.00 | 11.00 | 0.00 | 88 | 1013.1 |
| 20260507041833 | 9 | 75 | 0.0 | 0.0 | 0.00 | 11.00 | 0.00 | 88 | 1013.2 |
| 20260507041515 | 9 | 75 | 0.0 | 0.0 | 0.00 | 2.21 | 0.00 | 88 | 1013.2 |
| 20260507041340 | 9 | 75 | 0.0 | 0.0 | 0.00 | 11.00 | 0.00 | 88 | 1013.2 |
| 20260507040821 | 9 | 75 | 0.0 | 0.0 | 0.00 | 11.00 | 0.00 | 88 | 1013.1 |
| 20260507040323 | 9 | 75 | 0.0 | 0.0 | 0.00 | 11.00 | 0.00 | 88 | 1013.1 |
| 20260507040036 | 9 | 75 | 0.0 | 0.0 | 0.00 | 2.24 | 0.00 | 88 | 1013.0 |
| 20260507035831 | 9 | 75 | 0.0 | 0.0 | 0.00 | 11.20 | 0.00 | 88 | 1013.1 |
| 20260507035330 | 9 | 75 | 0.0 | 0.0 | 0.00 | 11.20 | 0.00 | 88 | 1013.2 |
| 20260507034832 | 10 | 75 | 0.0 | 0.0 | 0.00 | 11.20 | 0.00 | 88 | 1013.2 |
| 20260507034526 | 9 | 75 | 0.0 | 0.0 | 0.00 | 2.24 | 0.00 | 88 | 1013.2 |
| 20260507034341 | 10 | 75 | 0.0 | 0.0 | 0.00 | 11.20 | 0.00 | 88 | 1013.2 |
| 20260507033850 | 10 | 75 | 0.0 | 0.0 | 0.00 | 11.20 | 0.00 | 88 | 1013.1 |
| 20260507033331 | 10 | 75 | 0.0 | 0.0 | 0.00 | 11.20 | 0.00 | 88 | 1013.2 |
| 20260507033039 | 10 | 75 | 0.0 | 0.0 | 0.00 | 2.24 | 0.00 | 88 | 1013.2 |
| 20260507032837 | 10 | 75 | 0.0 | 0.0 | 0.00 | 11.20 | 0.00 | 88 | 1013.2 |
| 20260507032319 | 10 | 75 | 0.0 | 0.0 | 0.00 | 11.20 | 0.00 | 88 | 1013.1 |
| 20260507031819 | 10 | 75 | 0.0 | 0.0 | 0.00 | 11.20 | 0.00 | 88 | 1013.1 |
| 20260507031529 | 10 | 75 | 0.0 | 0.0 | 0.00 | 2.24 | 0.00 | 88 | 1013.2 |
| 20260507031329 | 10 | 75 | 0.0 | 0.0 | 0.00 | 11.20 | 0.00 | 88 | 1013.1 |
| 20260507030830 | 10 | 75 | 0.0 | 0.0 | 0.00 | 11.20 | 0.00 | 88 | 1013.2 |
| 20260507030338 | 10 | 75 | 0.0 | 0.0 | 0.00 | 11.20 | 0.00 | 88 | 1013.2 |
| 20260507030018 | 10 | 75 | 0.0 | 0.0 | 0.00 | 3.91 | 0.00 | 88 | 1013.0 |
| 20260507025852 | 10 | 75 | 0.0 | 0.0 | 0.00 | 19.61 | 0.00 | 88 | 1013.1 |
| 20260507025339 | 10 | 75 | 0.0 | 0.0 | 0.00 | 19.61 | 0.00 | 88 | 1013.1 |
| 20260507024819 | 10 | 75 | 0.0 | 0.0 | 0.00 | 19.61 | 0.00 | 88 | 1013.2 |
| 20260507024524 | 10 | 75 | 0.0 | 0.0 | 0.00 | 3.91 | 0.00 | 88 | 1013.2 |
| 20260507024327 | 11 | 75 | 0.0 | 0.0 | 0.00 | 19.61 | 0.00 | 88 | 1013.1 |
| 20260507023830 | 11 | 75 | 0.0 | 0.0 | 0.00 | 19.61 | 0.00 | 88 | 1013.2 |
| 20260507023338 | 11 | 75 | 0.0 | 0.0 | 0.00 | 19.61 | 0.00 | 88 | 1013.1 |
| 20260507023016 | 10 | 75 | 0.0 | 0.0 | 0.00 | 3.91 | 0.00 | 88 | 1013.1 |
| 20260507022820 | 11 | 75 | 0.0 | 0.0 | 0.00 | 19.61 | 0.00 | 88 | 1013.0 |
| 20260507022328 | 11 | 75 | 0.0 | 0.0 | 0.00 | 19.61 | 0.00 | 88 | 1013.1 |
| 20260507021829 | 11 | 75 | 0.0 | 0.0 | 0.00 | 19.61 | 0.00 | 88 | 1013.1 |
| 20260507021546 | 11 | 75 | 0.0 | 0.0 | 0.00 | 3.91 | 0.00 | 88 | 1013.0 |
| 20260507021358 | 11 | 75 | 0.0 | 0.0 | 0.00 | 19.61 | 0.00 | 88 | 1013.2 |
| 20260507020817 | 11 | 75 | 0.0 | 0.0 | 0.00 | 19.61 | 0.00 | 88 | 1013.1 |
| 20260507020318 | 11 | 75 | 0.0 | 0.0 | 0.00 | 19.61 | 0.00 | 88 | 1013.0 |
| 20260507020017 | 11 | 75 | 0.0 | 0.0 | 0.00 | 4.14 | 0.00 | 88 | 1013.1 |
| 20260507015827 | 11 | 75 | 0.0 | 0.0 | 0.00 | 20.70 | 0.00 | 88 | 1013.1 |
| 20260507015322 | 11 | 75 | 0.0 | 0.0 | 0.00 | 20.70 | 0.00 | 88 | 1013.1 |
| 20260507014831 | 11 | 59 | 0.0 | 0.0 | 0.00 | 20.70 | 0.00 | 88 | 1013.1 |
| 20260507014506 | 11 | 65 | 0.0 | 0.0 | 0.00 | 4.14 | 0.00 | 88 | 1013.1 |
| 20260507014333 | 11 | 105 | 0.0 | 0.0 | 0.00 | 20.70 | 0.00 | 88 | 1013.1 |
| 20260507013821 | 11 | 86 | 0.0 | 0.0 | 0.00 | 20.70 | 0.00 | 88 | 1013.0 |
| 20260507013322 | 11 | 82 | 0.0 | 0.0 | 0.00 | 20.70 | 0.00 | 88 | 1013.1 |
| 20260507013042 | 11 | 99 | 0.0 | 0.0 | 0.00 | 4.14 | 0.00 | 88 | 1013.0 |
| 20260507012852 | 12 | 99 | 0.0 | 0.0 | 0.00 | 20.70 | 0.00 | 88 | 1013.1 |
| 20260507012358 | 12 | 99 | 0.0 | 0.0 | 0.00 | 20.70 | 0.00 | 88 | 1013.1 |
| 20260507011818 | 12 | 83 | 0.0 | 0.0 | 0.00 | 20.70 | 0.00 | 88 | 1013.1 |
| 20260507011548 | 11 | 76 | 0.0 | 0.0 | 0.00 | 4.14 | 0.00 | 88 | 1013.0 |
| 20260507011320 | 12 | 74 | 0.0 | 0.0 | 0.00 | 20.70 | 0.00 | 88 | 1013.0 |
| 20260507010829 | 12 | 82 | 0.0 | 0.0 | 0.00 | 20.70 | 0.00 | 88 | 1013.0 |
| 20260507010338 | 12 | 82 | 0.0 | 0.0 | 0.00 | 20.70 | 0.00 | 88 | 1013.0 |
| 20260507010015 | 11 | 78 | 0.0 | 0.0 | 0.00 | 4.34 | 0.00 | 88 | 1013.0 |
| 20260507005814 | 12 | 78 | 0.0 | 0.0 | 0.00 | 21.69 | 0.00 | 88 | 1013.1 |
| 20260507005313 | 12 | 90 | 0.0 | 0.0 | 0.00 | 21.69 | 0.00 | 88 | 1013.1 |
| 20260507004822 | 12 | 87 | 0.0 | 0.0 | 0.00 | 21.69 | 0.00 | 88 | 1013.1 |
| 20260507004547 | 11 | 88 | 0.0 | 0.0 | 0.00 | 4.34 | 0.00 | 88 | 1013.1 |
| 20260507004324 | 12 | 67 | 0.0 | 0.0 | 0.00 | 21.69 | 0.00 | 88 | 1013.1 |
| 20260507003833 | 12 | 84 | 0.0 | 0.0 | 0.00 | 21.69 | 0.00 | 88 | 1013.1 |
| 20260507003335 | 12 | 91 | 0.0 | 0.0 | 0.00 | 21.69 | 0.00 | 88 | 1013.1 |
| 20260507003029 | 11 | 66 | 0.0 | 0.0 | 0.00 | 4.34 | 0.00 | 88 | 1013.0 |
| 20260507002827 | 12 | 93 | 0.0 | 0.0 | 0.00 | 21.69 | 0.00 | 88 | 1013.1 |
| 20260507002328 | 12 | 79 | 0.0 | 0.0 | 0.00 | 21.69 | 0.00 | 88 | 1013.2 |
| 20260507001837 | 12 | 81 | 0.0 | 0.0 | 0.00 | 21.69 | 0.00 | 88 | 1013.0 |
| 20260507001514 | 11 | 84 | 0.0 | 0.0 | 0.00 | 4.34 | 0.00 | 88 | 1013.0 |
| 20260507001339 | 12 | 84 | 0.0 | 1.6 | 0.00 | 21.69 | 0.00 | 88 | 1013.0 |
| 20260507000837 | 12 | 70 | 0.0 | 3.2 | 0.00 | 21.69 | 0.00 | 88 | 1013.0 |
| 20260507000321 | 12 | 70 | 0.0 | 3.2 | 0.00 | 21.69 | 0.00 | 88 | 1013.1 |
| 20260507000058 | 12 | 70 | 0.0 | 3.2 | 0.00 | 5.66 | 0.00 | 88 | 1013.2 |
| 20260506235820 | 12 | 91 | 0.0 | 0.0 | 0.00 | 2.82 | 0.00 | 88 | 1013.1 |
| 20260506235329 | 12 | 91 | 0.0 | 0.0 | 0.00 | 2.82 | 0.00 | 88 | 1013.2 |
| 20260506234830 | 12 | 91 | 0.0 | 0.0 | 0.00 | 2.82 | 0.00 | 88 | 1013.2 |
| 20260506234559 | 12 | 91 | 0.0 | 0.0 | 0.00 | 5.66 | 0.00 | 88 | 1013.1 |
| 20260506234400 | 12 | 91 | 0.0 | 0.0 | 0.00 | 2.82 | 0.00 | 88 | 1013.2 |
| 20260506233839 | 12 | 91 | 0.0 | 1.6 | 0.00 | 2.82 | 0.00 | 88 | 1013.2 |
| 20260506233324 | 12 | 91 | 0.0 | 6.4 | 0.00 | 2.82 | 0.00 | 88 | 1013.1 |
| 20260506233101 | 12 | 91 | 0.0 | 6.4 | 0.00 | 5.66 | 0.00 | 88 | 1013.1 |
| 20260506232829 | 12 | 91 | 0.0 | 9.7 | 0.00 | 2.82 | 0.00 | 88 | 1013.1 |
| 20260506232346 | 12 | 98 | 4.8 | 9.7 | 0.00 | 2.82 | 0.00 | 88 | 1013.1 |
| 20260506231833 | 12 | 195 | 0.0 | 0.0 | 0.00 | 2.82 | 0.00 | 88 | 1013.3 |
| 20260506231601 | 12 | 195 | 0.0 | 0.0 | 0.00 | 5.66 | 0.00 | 88 | 1013.2 |
| 20260506231314 | 12 | 195 | 0.0 | 0.0 | 0.00 | 2.82 | 0.00 | 88 | 1013.3 |
| 20260506230326 | 12 | 195 | 0.0 | 0.0 | 0.00 | 2.82 | 0.00 | 88 | 1013.2 |
| 20260506230100 | 12 | 195 | 0.0 | 0.0 | 0.00 | 7.98 | 0.00 | 88 | 1013.2 |
| 20260506225829 | 12 | 195 | 0.0 | 0.0 | 0.00 | 3.99 | 0.00 | 88 | 1013.2 |
| 20260506225337 | 12 | 195 | 0.0 | 0.0 | 0.00 | 3.99 | 0.00 | 88 | 1013.2 |
| 20260506224839 | 12 | 195 | 0.0 | 0.0 | 0.00 | 3.99 | 0.00 | 88 | 1013.1 |
| 20260506224528 | 12 | 195 | 0.0 | 0.0 | 0.00 | 7.98 | 0.00 | 88 | 1013.2 |
| 20260506224326 | 12 | 195 | 0.0 | 0.0 | 0.00 | 3.99 | 0.00 | 88 | 1013.1 |
| 20260506223914 | 12 | 195 | 0.0 | 0.0 | 0.00 | 3.99 | 0.00 | 88 | 1013.1 |
| 20260506223336 | 12 | 195 | 0.0 | 0.0 | 0.00 | 3.99 | 0.00 | 88 | 1013.2 |
| 20260506223058 | 12 | 195 | 0.0 | 0.0 | 0.00 | 7.98 | 0.00 | 88 | 1013.1 |
| 20260506222816 | 12 | 195 | 0.0 | 0.0 | 0.00 | 3.99 | 0.00 | 88 | 1013.2 |
| 20260506222324 | 13 | 195 | 0.0 | 0.0 | 0.00 | 3.99 | 0.00 | 88 | 1013.2 |
| 20260506221825 | 13 | 195 | 0.0 | 0.0 | 0.00 | 3.99 | 0.00 | 88 | 1013.2 |
| 20260506221546 | 12 | 195 | 0.0 | 0.0 | 0.00 | 7.98 | 0.00 | 88 | 1013.2 |
| 20260506221326 | 13 | 195 | 0.0 | 0.0 | 0.00 | 3.99 | 0.00 | 88 | 1013.1 |
| 20260506220814 | 13 | 195 | 0.0 | 0.0 | 0.00 | 3.99 | 0.00 | 88 | 1013.2 |
| 20260506220315 | 13 | 195 | 0.0 | 0.0 | 0.00 | 3.99 | 0.00 | 88 | 1013.1 |
| 20260506220037 | 13 | 195 | 0.0 | 0.0 | 0.00 | 7.98 | 7.98 | 88 | 1013.0 |
| 20260506215844 | 13 | 195 | 0.0 | 0.0 | 0.00 | 3.99 | 7.98 | 88 | 1013.1 |
| 20260506215325 | 13 | 195 | 0.0 | 0.0 | 0.00 | 3.99 | 7.98 | 88 | 1013.0 |
| 20260506214833 | 13 | 195 | 0.0 | 0.0 | 0.00 | 3.99 | 7.98 | 88 | 1013.1 |
| 20260506214507 | 13 | 195 | 0.0 | 0.0 | 0.00 | 7.98 | 7.98 | 88 | 1013.1 |
| 20260506214334 | 13 | 195 | 0.0 | 0.0 | 0.00 | 3.99 | 7.98 | 88 | 1013.1 |
| 20260506213828 | 13 | 195 | 0.0 | 0.0 | 0.00 | 3.99 | 7.98 | 88 | 1013.0 |
| 20260506213323 | 13 | 195 | 0.0 | 0.0 | 0.00 | 3.99 | 7.98 | 88 | 1013.0 |
| 20260506213038 | 13 | 195 | 0.0 | 0.0 | 0.00 | 7.98 | 7.98 | 88 | 1013.0 |
| 20260506212817 | 13 | 195 | 0.0 | 0.0 | 0.00 | 3.99 | 7.98 | 88 | 1013.1 |
| 20260506212345 | 13 | 195 | 0.0 | 0.0 | 0.00 | 3.99 | 7.98 | 88 | 1013.1 |
| 20260506211831 | 13 | 195 | 0.0 | 0.0 | 0.00 | 3.99 | 7.98 | 88 | 1013.0 |
| 20260506211506 | 13 | 195 | 0.0 | 0.0 | 0.00 | 7.98 | 7.98 | 88 | 1013.0 |
| 20260506211312 | 14 | 195 | 0.0 | 0.0 | 0.00 | 3.99 | 7.98 | 88 | 1013.0 |
| 20260506210813 | 14 | 195 | 0.0 | 0.0 | 0.00 | 3.99 | 7.98 | 88 | 1013.0 |
| 20260506210321 | 14 | 195 | 0.0 | 0.0 | 0.00 | 3.99 | 7.98 | 88 | 1013.0 |
| 20260506210101 | 13 | 195 | 0.0 | 0.0 | 0.00 | 7.98 | 7.98 | 88 | 1012.9 |
| 20260506205849 | 14 | 195 | 0.0 | 0.0 | 0.00 | 3.99 | 7.98 | 88 | 1013.0 |
| 20260506205325 | 14 | 195 | 0.0 | 0.0 | 0.00 | 3.99 | 7.98 | 88 | 1012.9 |